[[{"header":{"parameterUnit":"m.s-1","parameterCategory":1,"la1":30.2991,"la2":30.254,"lo1":-89.0895,"lo2":-89.0444,"dy":0.0017,"dx":0.0017,"nx":28,"ny":28,"refTime":"2025-03-27T21:00:00:Z","depth":0,"parameterNumber":2,"parameterNumberName":"U-component_of_WINDS"},"data":[0,0,0,0,0,0,0,0,0,0,0,0,0,0,0,0,0,0,0,0,0,0,0,0,0,0,0,0,0,0,0,0,0,0,0,0,0,0,0,0,0,0,0,0,0,0,0,0,0,0,0,0,0,0,0,0,0,0,-4.1758,-4.1759,0,-4.1867,-4.1868,-4.187,-4.1828,-4.1826,-4.1823,-4.1821,-4.1935,-4.194,-4.1946,0,0,0,0,0,0,0,0,0,0,0,0,0,-4.1516,-4.1521,-4.1758,-4.1759,-4.176,-4.1867,-4.1868,-4.187,-4.1829,-4.1826,-4.1823,-4.182,-4.1933,-4.194,-4.1946,0,0,0,0,0,0,0,0,0,0,0,0,0,-4.1623,-4.1522,-4.1757,-4.1753,-4.1753,-4.1867,-4.1868,-4.187,-4.1829,-4.1826,-4.1822,-4.1818,-4.1931,-4.1939,-4.1947,-4.2072,0,0,-4.1972,-4.1975,0,0,0,0,0,0,0,0,-4.1617,-4.1632,-4.1752,-4.1753,-4.1754,-4.183,-4.1825,-4.1938,-4.183,-4.1801,-4.1821,-4.1816,-4.1903,-4.1914,-4.1942,-4.2078,-4.2082,-4.1972,-4.1977,-4.1981,-4.1983,0,0,0,0,0,0,0,-4.1609,-4.1627,-4.1801,-4.1754,-4.1755,-4.1746,-4.1757,-4.1846,-4.1872,-4.1803,-4.18,-4.1814,-4.1903,-4.1935,-4.1945,-4.2084,-4.1972,-4.1979,-4.1984,-4.1988,-4.2328,-4.2332,0,0,0,0,0,0,-4.1601,-4.1621,-4.1797,-4.1804,-4.1675,-4.1753,-4.1766,-4.181,-4.1871,-4.1876,-4.1817,-4.1811,-4.1923,-4.1935,-4.1949,-4.2098,-4.1981,-4.1988,-4.1993,-4.2324,-4.2329,-4.2333,0,0,0,0,0,0,-4.1596,-4.1617,-4.1793,-4.1712,-4.1734,-4.1762,-4.1811,-4.1814,-4.1845,-4.1881,-4.1886,-4.1844,-4.192,-4.1937,-4.2042,-4.2101,-4.1992,-4.1999,-4.2319,-4.2325,-4.2331,-4.2398,0,0,0,0,0,0,-4.159,-4.1616,-4.1663,-4.1713,-4.1738,-4.1883,-4.1815,-4.1819,-4.1859,-4.1853,-4.1908,-4.1913,-4.1919,-4.203,-4.205,-4.2111,-4.2006,-4.2313,-4.2322,-4.2329,-4.2391,-4.2406,-4.2419,0,0,0,0,0,-4.1581,-4.1678,-4.1665,-4.1687,-4.1797,-4.1887,-4.1901,-4.1904,-4.1864,-4.1911,-4.1935,-4.1912,-4.2093,-4.2041,-4.2063,-4.2127,-4.231,-4.2319,-4.2328,-4.2385,-4.2403,-4.2419,0,0,0,0,0,0,-4.1634,-4.1684,-4.1671,-4.1787,-4.1833,-4.188,-4.1939,-4.1924,-4.1983,-4.1975,-4.1978,-4.1991,-4.2098,-4.2124,-4.2065,-4.2252,-4.2195,-4.2209,-4.223,-4.2248,-4.2262,-4.2252,-4.2012,0,0,0,0,0,-4.1659,-4.1727,-4.1768,-4.1867,-4.189,-4.1911,-4.1951,-4.1949,-4.1997,-4.2017,-4.2048,-4.2096,-4.2164,-4.2208,-4.2272,-4.2396,-4.2407,-4.2451,-4.2465,-4.2477,-4.2488,-4.2555,-4.2575,-4.2364,-4.2364,-4.2364,0,0,-4.1712,-4.1748,-4.179,-4.1878,-4.1913,-4.1984,-4.1928,-4.2005,-4.2057,-4.2029,-4.2128,-4.2153,-4.2207,-4.2322,-4.2374,-4.2346,-4.2549,-4.2489,-4.2498,-4.2503,-4.2567,-4.2586,-4.2604,-4.2371,-4.2369,-4.2368,0,0,-4.1843,-4.1878,-4.1963,-4.2,-4.2054,-4.2068,-4.2089,-4.2139,-4.2154,-4.2254,-4.2234,-4.2297,-4.2414,-4.2453,-4.2488,-4.2637,-4.2617,-4.2658,-4.2731,-4.2796,-4.2813,-4.2827,-4.2879,-4.2897,-4.267,-4.267,-4.2671,0,-4.1901,-4.2006,-4.2009,-4.2088,-4.2127,-4.2105,-4.2191,-4.2227,-4.23,-4.2328,-4.2297,-4.2443,-4.2478,-4.26,-4.2637,-4.2667,-4.269,-4.265,-4.281,-4.2825,-4.2839,-4.2887,-4.2907,-4.2675,-4.2674,-4.2674,-4.2673,0,-4.2074,-4.2148,-4.221,-4.228,-4.2327,-4.241,-4.2426,-4.2473,-4.2469,-4.2487,-4.2589,-4.2631,-4.2703,-4.2733,-4.273,-4.2856,-4.2837,-4.2809,-4.2751,-4.2863,-4.2909,-4.2928,-4.2681,-4.268,-4.2678,-4.2677,0,0,-4.2238,-4.2311,-4.2333,-4.2365,-4.2424,-4.2481,-4.2564,-4.2634,-4.2673,-4.2726,-4.2794,-4.2895,-4.2869,-4.2909,-4.2911,-4.2968,-4.3082,-4.2932,-4.2934,-4.2957,-4.3222,-4.324,-4.3262,-4.3071,-4.3074,-4.3077,-4.3216,0,-4.2372,-4.2515,-4.2521,-4.2651,-4.2719,-4.27,-4.2772,-4.2817,-4.2836,-4.2897,-4.2919,-4.2989,-4.295,-4.2974,-4.3031,-4.3056,-4.3134,-4.3046,-4.3134,-4.3137,-4.3117,-4.3286,-4.3307,-4.3435,-4.3234,-4.3237,-4.324,0,-4.2547,-4.2603,-4.274,-4.279,-4.2818,-4.2883,-4.2947,-4.3006,-4.3057,-4.3068,-4.3114,-4.3107,-4.3193,-4.3135,-4.3253,-4.3193,-4.323,-4.3248,-4.3253,-4.3258,-4.3192,-4.3294,-4.3477,-4.3495,-4.3268,-4.3266,-4.3264,0,-4.265,-4.2761,-4.2856,-4.2885,-4.2946,-4.2991,-4.3019,-4.3067,-4.3109,-4.3167,-4.3194,-4.3261,-4.3298,-4.3351,-4.3363,-4.3321,-4.3481,-4.3424,-4.3491,-4.349,-4.3522,-4.3519,-4.371,-4.3552,-4.3551,-4.3551,-4.355,0,-4.2796,-4.288,-4.2903,-4.2962,-4.3056,-4.3064,-4.3157,-4.3182,-4.3225,-4.3288,-4.3278,-4.3338,-4.3353,-4.3417,-4.3428,-4.3523,-4.354,-4.3551,-4.3552,-4.355,-4.3548,-4.3571,-4.3562,-4.3556,-4.3555,-4.3554,-4.3553,0,-4.2926,-4.2945,-4.3048,-4.3098,-4.3113,-4.3179,-4.3223,-4.328,-4.3299,-4.338,-4.3399,-4.343,-4.3504,-4.3523,-4.3613,-4.362,-4.3731,-4.3726,-4.3713,-4.3712,-4.3777,-4.3769,-4.3987,-4.4015,-4.384,-4.3842,-4.3843,0,-4.3016,-4.308,-4.3137,-4.3179,-4.3209,-4.3276,-4.3319,-4.333,-4.3375,-4.3439,-4.3489,-4.3562,-4.362,-4.3741,-4.3771,-4.384,-4.3834,-4.3906,-4.3844,-4.384,-4.3832,-4.3827,-4.3833,-4.3916,-4.3918,-4.392,-4.3921,0,-4.3175,-4.3181,-4.3242,-4.3308,-4.3359,-4.3411,-4.3461,-4.3496,-4.3515,-4.3566,-4.3642,-4.3687,-4.3779,-4.3851,-4.3921,-4.3951,-4.3939,-4.3941,-4.3959,-4.3956,-4.3945,-4.3949,-4.3742,-4.3935,-4.3933,-4.3932,-4.3932,-4.3931,-4.3285,-4.3341,-4.339,-4.3459,-4.3498,-4.3545,-4.36,-4.3627,-4.369,-4.3764,-4.3768,-4.385,-4.3901,-4.3993,-4.4027,-4.4092,-4.4071,-4.4098,-4.4104,-4.411,-4.4115,-4.3937,-4.4106,-4.4105,-4.4105,-4.4105,-4.4104,0,-4.3441,-4.3472,-4.3535,-4.3605,-4.366,-4.3645,-4.37,-4.3746,-4.3818,-4.3867,-4.3925,-4.4012,-4.4083,-4.412,-4.4191,-4.4236,-4.4233,-4.4254,-4.4249,-4.4256,-4.4131,-4.4107,-4.4256,-4.4256,-4.4256,-4.4256,-4.4256,-4.4256,-4.3528,-4.362,-4.3633,-4.3746,-4.3777,-4.3856,-4.3889,-4.3933,-4.3971,-4.4069,-4.4127,-4.4151,-4.4195,-4.4269,-4.4334,-4.4343,-4.4369,-4.4393,-4.4399,-4.4281,-4.4265,-4.425,-4.4227,-4.4399,-4.4399,-4.4518,-4.4519,-4.452]},{"header":{"parameterUnit":"m.s-1","parameterCategory":1,"la1":30.2991,"la2":30.254,"lo1":-89.0895,"lo2":-89.0444,"dy":0.0017,"dx":0.0017,"nx":28,"ny":28,"refTime":"2025-03-27T21:00:00:Z","depth":0,"parameterNumber":3,"parameterNumberName":"V-component_of_WINDS"},"data":[0,0,0,0,0,0,0,0,0,0,0,0,0,0,0,0,0,0,0,0,0,0,0,0,0,0,0,0,0,0,0,0,0,0,0,0,0,0,0,0,0,0,0,0,0,0,0,0,0,0,0,0,0,0,0,0,0,0,1.4003,1.4003,0,1.4079,1.408,1.4081,1.409,1.4089,1.4088,1.4088,1.4164,1.4167,1.417,0,0,0,0,0,0,0,0,0,0,0,0,0,1.3865,1.3867,1.4003,1.4004,1.4005,1.4079,1.408,1.4081,1.409,1.4089,1.4088,1.4087,1.4164,1.4167,1.417,0,0,0,0,0,0,0,0,0,0,0,0,0,1.3931,1.3868,1.4002,1.4018,1.402,1.4079,1.408,1.4081,1.409,1.4089,1.4088,1.4087,1.4163,1.4167,1.4171,1.4219,0,0,1.4183,1.4185,0,0,0,0,0,0,0,0,1.3928,1.3936,1.4015,1.4017,1.402,1.4074,1.406,1.4127,1.409,1.4064,1.4088,1.4086,1.4135,1.4141,1.4158,1.4222,1.4225,1.4184,1.4186,1.4188,1.4189,0,0,0,0,0,0,0,1.3923,1.3933,1.4033,1.4016,1.4019,1.4021,1.403,1.4073,1.4105,1.4066,1.4067,1.4076,1.4136,1.4154,1.416,1.4227,1.4183,1.4187,1.419,1.4191,1.4337,1.4338,0,0,0,0,0,0,1.3916,1.3929,1.403,1.4035,1.397,1.4025,1.4034,1.4058,1.4104,1.411,1.4077,1.4076,1.4148,1.4155,1.4163,1.4224,1.4188,1.4192,1.4194,1.4336,1.4337,1.4339,0,0,0,0,0,0,1.3913,1.3924,1.4027,1.3983,1.3996,1.4028,1.4055,1.406,1.4078,1.4112,1.4118,1.4089,1.4147,1.4157,1.4205,1.4227,1.4193,1.4197,1.4334,1.4336,1.4338,1.4345,0,0,0,0,0,0,1.3909,1.3923,1.3941,1.3983,1.3998,1.4068,1.4056,1.4062,1.4085,1.4085,1.4126,1.4131,1.4147,1.4199,1.421,1.4232,1.42,1.4332,1.4335,1.4337,1.4343,1.4348,1.4351,0,0,0,0,0,1.3904,1.3939,1.3942,1.3954,1.4022,1.407,1.4078,1.4096,1.4086,1.4105,1.4128,1.413,1.4223,1.4204,1.4216,1.424,1.4331,1.4334,1.4337,1.4342,1.4347,1.4351,0,0,0,0,0,0,1.3898,1.3945,1.3949,1.3999,1.4031,1.4071,1.4095,1.41,1.4135,1.4133,1.4153,1.4162,1.421,1.423,1.4208,1.429,1.4276,1.4282,1.4275,1.4281,1.4284,1.4279,1.4204,0,0,0,0,0,1.3903,1.3938,1.3977,1.4018,1.4034,1.4062,1.4083,1.4095,1.4128,1.4141,1.4167,1.4199,1.4236,1.4259,1.4294,1.4347,1.4357,1.4369,1.4373,1.4376,1.438,1.4412,1.4418,1.4349,1.4349,1.4349,0,0,1.3913,1.3943,1.3964,1.4018,1.4043,1.408,1.4073,1.4111,1.4139,1.4146,1.4194,1.4215,1.4252,1.4303,1.4327,1.4321,1.4402,1.438,1.4382,1.4385,1.4416,1.4422,1.4428,1.4351,1.4351,1.4351,0,0,1.395,1.3976,1.4014,1.4041,1.408,1.4099,1.4108,1.4149,1.4164,1.4212,1.422,1.4253,1.4315,1.4342,1.4364,1.4415,1.4418,1.4426,1.4446,1.4476,1.4481,1.4486,1.4506,1.4513,1.443,1.443,1.443,0,1.3958,1.4013,1.4033,1.4072,1.4096,1.4107,1.4146,1.4171,1.4219,1.4236,1.4229,1.4309,1.4335,1.4393,1.4406,1.4423,1.4435,1.4421,1.4479,1.4484,1.4489,1.4508,1.4515,1.4431,1.4431,1.4431,1.4431,0,1.4021,1.4059,1.4085,1.4134,1.4161,1.42,1.4226,1.4252,1.4262,1.4282,1.4333,1.4364,1.4407,1.4422,1.4431,1.4483,1.4478,1.4475,1.4461,1.4496,1.4515,1.4522,1.4432,1.4432,1.4432,1.4432,0,0,1.4055,1.4116,1.4125,1.4149,1.4195,1.4225,1.4265,1.4309,1.4331,1.4365,1.44,1.4454,1.4452,1.4477,1.449,1.4516,1.4557,1.451,1.4511,1.4519,1.4618,1.4621,1.4629,1.456,1.4561,1.4563,1.4616,0,1.4098,1.417,1.4191,1.4252,1.4289,1.4301,1.4337,1.4369,1.439,1.4425,1.4447,1.4486,1.4479,1.4495,1.4522,1.4546,1.4578,1.4543,1.4593,1.4595,1.4584,1.4638,1.4641,1.4689,1.4623,1.4624,1.4625,0,1.4157,1.4195,1.426,1.4304,1.4321,1.4352,1.4395,1.4428,1.4466,1.4479,1.4508,1.4519,1.4563,1.4547,1.4609,1.4585,1.4607,1.4622,1.4625,1.463,1.4612,1.4646,1.4705,1.4713,1.4636,1.4635,1.4634,0,1.4178,1.4244,1.4292,1.4312,1.4364,1.4386,1.4409,1.4446,1.4471,1.4509,1.4526,1.4568,1.4591,1.4624,1.4646,1.4632,1.4706,1.4692,1.4719,1.4719,1.4734,1.4732,1.4798,1.4747,1.4747,1.4747,1.4747,0,1.4224,1.4264,1.4302,1.4332,1.4378,1.4402,1.4446,1.447,1.4503,1.4538,1.4551,1.4584,1.4611,1.4648,1.4666,1.4715,1.4725,1.4737,1.4742,1.4737,1.4735,1.4751,1.4749,1.4749,1.4748,1.4748,1.4748,0,1.4253,1.4281,1.4335,1.4381,1.4393,1.4425,1.4465,1.4495,1.4517,1.4561,1.4573,1.4608,1.4652,1.4678,1.4733,1.4746,1.48,1.4803,1.4788,1.479,1.4816,1.4814,1.4894,1.4907,1.4847,1.4848,1.4848,0,1.4281,1.4313,1.4363,1.4388,1.4411,1.4451,1.4478,1.4504,1.4531,1.4579,1.4603,1.4649,1.4686,1.4757,1.4787,1.483,1.4834,1.486,1.4841,1.4835,1.4836,1.4834,1.4838,1.4863,1.4863,1.4864,1.4864,0,1.4328,1.4341,1.438,1.4425,1.4457,1.4493,1.4529,1.4549,1.458,1.4611,1.4657,1.4687,1.4745,1.479,1.4837,1.486,1.4868,1.487,1.4879,1.4874,1.4865,1.4872,1.4797,1.4868,1.4868,1.4867,1.4867,1.4867,1.4359,1.4388,1.4429,1.4473,1.4503,1.4537,1.4568,1.4595,1.4634,1.4684,1.4697,1.4746,1.4786,1.4849,1.4874,1.4913,1.4909,1.4921,1.4924,1.4927,1.4929,1.4858,1.4922,1.4921,1.4921,1.4921,1.4921,0,1.4408,1.4436,1.4476,1.4526,1.4561,1.4567,1.4607,1.4636,1.4679,1.4716,1.4754,1.4808,1.4853,1.4888,1.4934,1.4959,1.4964,1.497,1.4969,1.4975,1.4929,1.4918,1.4966,1.4966,1.4966,1.4966,1.4966,1.4966,1.4438,1.4489,1.4507,1.4573,1.4601,1.465,1.4673,1.4705,1.4734,1.4795,1.4833,1.4856,1.4892,1.4942,1.4984,1.4993,1.501,1.5016,1.5026,1.4982,1.4978,1.4973,1.4962,1.5019,1.5019,1.5068,1.5069,1.5069]}]]